Flag for USA

Past Weather in Richmond, Virginia, USA — Yesterday and Last 2 Weeks

Now
73 °F

Passing clouds.


Feels Like: 71 °F
Forecast: 91 / 72 °F
Wind: 3 mph from South

Location: Richmond International Airport

Current Time: Jul 5, 2020 at 3:35:36 am

Latest Report: Jul 5, 2020 at 2:54 am


Visibility: 8 mi

Pressure: 29.97 "Hg

Humidity: 90%

Dew Point: 70 °F

Location of RichmondLocation

Past Weather in Richmond — Graph

°F

Richmond Temperature Yesterday

Maximum temperature yesterday: 92 °F (at 3:54 pm)
Minimum temperature yesterday: 75 °F (at 11:54 pm)
Average temperature yesterday: 83 °F

High & Low Weather Summary for the Past Weeks

 TemperatureHumidityPressure
High94 °F (Jul 3, 3:54 pm)100% (Jun 21, 5:33 am)30.10 "Hg (Jun 21, 5:33 am)
Low65 °F (Jun 26, 3:54 am)31% (Jun 26, 2:54 pm)29.72 "Hg (Jun 23, 4:54 pm)
Average77 °F73%29.92 "Hg
* Reported Jun 20 1:54 am — Jul 5 1:54 am, Richmond. Weather by CustomWeather, © 2020

Note: Actual official high and low records may vary slightly from our data, if they occured in-between our weather recording intervals... More about our weather records

Richmond Weather History for the Previous 24 Hours

Scroll right to see more
 ConditionsComfort  
Time TempWeatherWind HumidityBarometerVisibility
1:54 am
Sun, Jul 5
73 °FPassing clouds.3 mph90%29.98 "Hg9 mi
12:54 am74 °FPassing clouds.6 mph91%29.97 "Hg10 mi
11:54 pm
Sat, Jul 4
75 °FPassing clouds.5 mph85%29.97 "Hg10 mi
10:54 pm77 °FPassing clouds.6 mph85%29.96 "Hg10 mi
9:54 pm79 °FPassing clouds.8 mph84%29.95 "Hg10 mi
8:54 pm81 °FPassing clouds.6 mph77%29.93 "Hg10 mi
7:54 pm83 °FPassing clouds.8 mph72%29.91 "Hg10 mi
6:54 pm85 °FPassing clouds.10 mph70%29.90 "Hg10 mi
5:54 pm89 °FSunny.9 mph55%29.89 "Hg10 mi
4:54 pm90 °FScattered clouds.10 mph56%29.90 "Hg10 mi
3:54 pm92 °FBroken clouds.6 mph47%29.90 "Hg10 mi
2:54 pm90 °FBroken clouds.7 mph52%29.92 "Hg10 mi
1:54 pm90 °FBroken clouds.8 mph52%29.92 "Hg10 mi
12:54 pm89 °FScattered clouds.8 mph57%29.93 "Hg10 mi
11:54 am89 °FPassing clouds.8 mph55%29.94 "Hg10 mi
10:54 am88 °FSunny.9 mph57%29.93 "Hg10 mi
9:54 am86 °FPassing clouds.10 mph59%29.93 "Hg10 mi
8:54 am83 °FSunny.7 mph63%29.91 "Hg10 mi
7:54 am80 °FScattered clouds.9 mph64%29.91 "Hg10 mi
6:54 am77 °FScattered clouds.6 mph74%29.90 "Hg10 mi
5:54 am76 °FScattered clouds.8 mph74%29.89 "Hg10 mi
4:54 am76 °FPassing clouds.5 mph77%29.88 "Hg10 mi
3:54 am77 °FPassing clouds.5 mph74%29.88 "Hg10 mi
Weather by CustomWeather, © 2020

See weather overview